Location: Marshall
(39.8477°N, 87.1868°W)
Time: 03:34:10
(UTC+00:00)

BlueWalker 3 - Pass Details

Date: 13 May 2026
Orbit: 447 x 456 km, 53.2° (Epoch: 9 June)

Event Time Altitude Azimuth Distance (km) Brightness Sun altitude
Exits shadow 07:08:20 21° 10° (N) 1,048 4.2 -28.6°
Drops below altitude 10° 07:10:02 10° 32° (NNE) 1,574 5.4 -28.5°
Sets 07:12:21 0° 44° (NE) 2,449 6.5 -28.3°
